CZ-6A DEB, 55210

Orbit data source: Space-Track

CZ-6A DEB, 55210 is space debris in SSO originally from a launch on Fri, 11 Nov 2022 UTC launched from the Taiyaun Space Center, China (TSC). Debris objects in space refer to the collection of defunct objects orbiting the Earth. Examples of debris include non-operational satellites, rocket bodies, and fragments generated from explosions, collisions, or faulty payload assembly.

Loading next visibility...
Identifier
55210, 2022-151WB
Orbit
SSO
Country
Flag of CNCN / PRC
Related business
Manufacturer
SAST
Mission
Spacecraft
Bus & Motor
Unknown
Mass
Unknown
Launch date (UTC)
2022-11-11 (3 years ago)
Launch vehicle
Unknown
Launch site
Taiyaun Space Center, China (TSC)
Object type
Payload
Rocket body
Debris
Shape & HBR
Unknown shape, 0.1 m
Radar Cross Section
Small (<0.1 m²)

Expand to show TLE details & history
Last TLE update: 15 hours ago

TLE from 15 hours ago
0 CZ-6A DEB
1 55210U 22151WB  26130.34585984  .00003086  00000-0  10210-2 0  9995
2 55210  98.7442 163.7565 0039794  55.3790 305.1139 14.38219672176484
Epoch: 2026-05-10T08:18Z
TLE epoch observation values (Epoch: 2026-05-10T08:18:02.290Z)
Latitude
0.00001°
Longitude
171.09669°
Altitude
751.049 km
Speed
7.488 km/s
True Right ascension
10h 55m 01s
True Declination
0° 00' 00"
Sunlit
Object was in daylight at epoch
Visualization orbit readout
Latitude
Unknown
Longitude
Unknown
Altitude
Unknown
Speed
Unknown
Apparent Right ascension
Unknown
Apparent Declination
Unknown
Sunlit
N/A
Visualization observer readout
Local Sidereal Time
07:22:05
Azimuth
Unknown
Elevation
Unknown
Doppler factor
Unknown
Orbital elements
Apogee altitude
789.934 km
Perigee altitude
733.111 km
Semi-major axis
7,139.66 km
Eccentricity
0.00398
Inclination
98.7442°
RAAN
163.7565°
Arg. of periapsis
55.379°
True anomaly
304.73982°
Mean anomaly
305.1139°
Eccentric anomaly
304.92696°
Mean motion
3.59772 °/min
Orbital period
100.06 mins
BSTAR
0.001021
Loading maneuver chart data...
Computing Atmospheric mass density...
Loading historical data...
Loading historical data...
Loading historical data...
Loading historical data...
Loading historical data...
Loading historical data...
Loading historical data...

Documentation

Showing up to 5 results
|